Location: Bílinka
(49.3579°N, 14.3767°E)
Time: 01:36:49
(UTC+00:00)

CSL-04 Rocket - Pass Details

Date: 28 January 2023
Orbit: 806 x 859 km, 98.8° (Epoch: 30 March)

Event Time Altitude Azimuth Distance (km) Brightness Sun altitude
Exits shadow 18:50:17 65° 336° (NNW) 899 3.8 -29.0°
Drops below altitude 10° 18:54:50 10° 344° (NNW) 2,433 6.3 -29.7°
Sets 18:57:13 0° 345° (NNW) 3,378 7.1 -30.1°
